Weather History for EGTE - November, 2012

Change the Weather History Date:

Sunday, November 18, 2012

  Actual Average Record
Temperature  
Mean Temperature 40 °F -  
Max Temperature 50 °F 48 °F 59 °F (1997)
Min Temperature 29 °F 37 °F 29 °F (2012)
Degree Days  
Heating Degree Days 26    
Moisture  
Dew Point 38 °F    
Average Humidity 81    
Maximum Humidity 100    
Minimum Humidity 55    
Precipitation  
Precipitation 0.01 in - - ()
Sea Level Pressure  
Sea Level Pressure 29.96 in    
Wind  
Wind Speed 3 mph ()    
Max Wind Speed 8 mph    
Max Gust Speed -    
Visibility 6.0 miles    
Events Fog    
Averages and records for this station are not official NWS values.
T = Trace of Precipitation, MM = Missing Value Source: Averaged Metar Reports

Daily Weather History Graph

Daily Weather History Graph

Search for Another Location

Airport or City:

Trip Planner

Search our weather history database for the weather conditions in past years. The results will help you decide how hot, cold, wet, or windy it might be!

Date:

Astronomy

Nov. 18, 2012 Rise Set
Actual Time 7:34 AM GMT 4:22 PM GMT
Civil Twilight 6:57 AM GMT 4:59 PM GMT
Nautical Twilight 6:17 AM GMT 5:39 PM GMT
Astronomical Twilight 5:38 AM GMT 6:18 PM GMT
Moon 11:46 AM GMT (11/18) 9:33 PM GMT (11/18)
Length of Visible Light 10h 01m
Length of Day
8h 48m
Waxing Crescent, 28% of the Moon is Illuminated
Nov 18
Waxing Crescent
Nov 20
First Quarter
Nov 28
Full
Dec 6
Last Quarter
Dec 13
New

Hourly Weather History & Observations

Time (GMT) Temp. Windchill Dew Point Humidity Pressure Visibility Wind Dir Wind Speed Gust Speed Precip Events Conditions
2:50 AM 33 °F - 33 °F 100%  in - NNE 1.2 mph - -  
5:50 AM 29 °F - 29 °F 99%  in - East 2.3 mph - -  
8:20 AM 30.2 °F - 30.2 °F 100% 29.98 in 0.6 mi Calm Calm - N/A Fog Fog
8:50 AM 32 °F - 32 °F 98%  in - East 1.2 mph - -  
8:50 AM 30.2 °F - 30.2 °F 100% 29.98 in 6.2 mi Calm Calm - N/A Fog Partly Cloudy
9:20 AM 32.0 °F - 32.0 °F 100% 29.98 in 6.2 mi Calm Calm - N/A Fog Partly Cloudy
9:50 AM 33.8 °F - 33.8 °F 100% 29.98 in 6.2 mi Calm Calm - N/A   Partly Cloudy
10:20 AM 35.6 °F 32.8 °F 35.6 °F 100% 29.98 in 6.2 mi Variable 3.5 mph - N/A   Partly Cloudy
10:50 AM 39.2 °F 37.0 °F 39.2 °F 100% 29.98 in 6.2 mi Variable 3.5 mph - N/A   Partly Cloudy
11:20 AM 41.0 °F - 41.0 °F 100% 29.98 in 6.2 mi Variable 1.2 mph - N/A   Partly Cloudy
11:50 AM 48 °F - 41 °F 70%  in - ENE 1.2 mph - -  
11:50 AM 44.6 °F - 41.0 °F 87% 29.98 in 6.2 mi Variable 1.2 mph - N/A   Partly Cloudy
12:20 PM 48.2 °F - 42.8 °F 82% 29.98 in 6.2 mi Variable 3.5 mph - N/A   Partly Cloudy
12:50 PM 50.0 °F - 42.8 °F 76% 29.98 in 6.2 mi SSW 4.6 mph - N/A   Partly Cloudy
1:20 PM 50.0 °F - 41.0 °F 71% 29.95 in 6.2 mi South 5.8 mph - N/A   Partly Cloudy
1:50 PM 50.0 °F - 39.2 °F 66% 29.95 in 6.2 mi South 6.9 mph - N/A   Partly Cloudy
2:20 PM 50.0 °F - 39.2 °F 66% 29.95 in 6.2 mi South 6.9 mph - N/A   Partly Cloudy
2:50 PM 49 °F - 40 °F 61%  in - South 4.6 mph - -  
2:50 PM 48.2 °F - 39.2 °F 71% 29.95 in 6.2 mi South 6.9 mph - N/A   Partly Cloudy
3:20 PM 48.2 °F - 41.0 °F 76% 29.95 in 6.2 mi SSE 5.8 mph - N/A   Partly Cloudy
3:50 PM 48.2 °F - 41.0 °F 76% 29.95 in 6.2 mi SSE 5.8 mph - N/A   Partly Cloudy
4:20 PM 46.4 °F 43.5 °F 39.2 °F 76% 29.95 in 6.2 mi SSE 5.8 mph - N/A   Partly Cloudy
4:50 PM 44.6 °F 41.4 °F 39.2 °F 81% 29.95 in 6.2 mi SSE 5.8 mph - N/A   Partly Cloudy
5:20 PM 44.6 °F 41.4 °F 37.4 °F 76% 29.95 in 6.2 mi SSE 5.8 mph - N/A   Partly Cloudy
5:50 PM 43 °F - 37 °F 72%  in - SSE 2.3 mph - -  
5:50 PM 44.6 °F 42.2 °F 37.4 °F 76% 29.95 in 6.2 mi SSE 4.6 mph - N/A   Partly Cloudy
6:20 PM 42.8 °F 39.3 °F 37.4 °F 81% 29.95 in 6.2 mi SE 5.8 mph - N/A   Partly Cloudy
6:50 PM 44.6 °F 41.4 °F 37.4 °F 76% 29.95 in 6.2 mi SSE 5.8 mph - N/A   Partly Cloudy
7:20 PM 44.6 °F 40.7 °F 39.2 °F 81% 29.95 in 6.2 mi South 6.9 mph - N/A   Partly Cloudy
7:50 PM 46.4 °F 43.5 °F 39.2 °F 76% 29.92 in 6.2 mi South 5.8 mph - N/A   Scattered Clouds
8:20 PM 48.2 °F - 39.2 °F 71% 29.92 in 6.2 mi South 8.1 mph - N/A   Scattered Clouds
8:50 PM 49 °F - 38 °F 55%  in - South 8.1 mph - -  
11:50 PM 49 °F - 38 °F 57%  in - SSW 8.1 mph - -